Regional Weather Roundup
Issued by NWS Newport/Morehead, NC

Current Version | Previous Version | Text Only | Print | Product List | Glossary On
Versions: 1 2 3 4 5 6 7 8 9 10 11 12 13 14 15 16 17 18 19 20 21 22 23 24 25 26 27 28 29 30 31 32 33 34 35 36 37 38 39 40 41 42 43 44 45 46 47 48 49 50
000
ASUS42 KMHX 251725
RWRMHX
WEATHER ROUNDUP FOR EASTERN NORTH CAROLINA
NATIONAL WEATHER SERVICE NEWPORT/MOREHEAD CITY NC
100 PM EDT FRI MAY 25 2018

NOTE: "FAIR" INDICATES FEW OR NO CLOUDS BELOW 12,000 FEET
WITH NO SIGNIFICANT WEATHER AND/OR OBSTRUCTIONS TO VISIBILITY

NCZ015>017-031-032-045>047-102-103-251800-
NORTH COAST

CITY           SKY/WX    TMP DP  RH WIND       PRES   REMARKS
EDENTON        FAIR      83  65  53 SW8       30.10F
ELIZABETH CITY FAIR      81  65  58 SW8       30.10F
KITTY HAWK     FAIR      79  61  53 SE8       30.09F
MANTEO         FAIR      78  62  58 S14       30.11F

$$

NCZ045>047-081-094-103-104-251800-
CENTRAL COAST

CITY           SKY/WX    TMP DP  RH WIND       PRES   REMARKS
FRISCO         FAIR      85  68  56 S9        30.12F

$$

NCZ095-097-098-100-101-251800-
SOUTHERN COAST

CITY           SKY/WX    TMP DP  RH WIND       PRES   REMARKS
BEAUFORT       FAIR      80  70  71 SE13      30.10F
CEDAR ISLAND   NOT AVBL
JACKSONVILLE   FAIR      82  68  62 S10       30.09F
PINEY ISLAND   NOT AVBL
WILMINGTON     FAIR      81  69  67 SE12      30.09F


$$

NCZ011>013-027>030-043-044-078>080-089-090>093-098-251800-
COASTAL PLAIN

CITY           SKY/WX    TMP DP  RH WIND       PRES   REMARKS
AHOSKIE        FAIR      81  62  52 S6        30.08F
CLINTON        FAIR      83  70  65 S3        30.09F
ELIZABETHTOWN  CLOUDY    81  70  68 S8        30.08F
GOLDSBORO      FAIR      83  65  55 S6        30.07F
GREENVILLE     FAIR      84  63  48 S7        30.10F
HAVELOCK       PTSUNNY   82  69  64 SE9G18    30.10F
KENANSVILLE    FAIR      81  68  65 E5        30.09F
KINSTON        PTSUNNY   84  63  48 SW6       30.09F
NEW BERN       FAIR      82  68  62 SE7       30.10F
RICHLANDS      CLOUDY    82  70  66 SE10      30.10F
ROCKY MOUNT    FAIR      83  65  54 MISG      30.09F
WASHINGTON     FAIR      84  64  51 CALM      30.09F
WHITEVILLE     CLOUDY    83  70  65 E3        30.07F

$$

AMZ130-135-150-152-154-156-158-170-250-252-270-ANZ085-086-088-633-658-670-251800-
MARINE OBSERVATIONS

STATION/POSITION TIME  TEMP    WIND        PRES    WAVE   SWELL
                       AIR SEA DIR/SP/G            HT/PER HT/PER
                 (UTC) (F)     (DEG/KT/KT) (MB)    (FT/S) (FT/S)
CHESAPEAKE LIGHT NOT AVBL
64 E VA BEACH    1650   71 69  190/  4/  6 1020.1    2/ 9   2/ 9
DUCK             1700   75 72  130/ 12/ 15 1018.8
2 E DUCK         1700      73                N/A     2/ 8
OREGON INLET     1700          170/ 11/ 13 1019.4
13E OREGON INLT  1648      72                N/A     2/ 8   2/ 8
HATTERAS CG      1700   78 76  160/ 10/ 11 1019.4
DIAMOND BUOY     1710   77 78  160/ 14/ 16 1019.9
CAPE LOOKOUT     1700          150/  7/  9 1019.7
BEAUFORT LAB     1700   78 78  170/  8/ 10 1019.6
30 SE NEW RVR IN 1708   77 77  200/  4/  6 1019.6
30 SE NEW RVR IN 1700      78                N/A     3/ 9
27 SE WRIGHTSVLE 1708   76 76  160/  6/ 12 1019.3
5 SE WRIGHTSVLE  1708   75 75  140/  8/ 10 1018.5
225 S CAPE HAT   1700      79  160/  6/  8 1019.6
41 SE CHARLESTON 1700      76  110/  8/ 10 1018.9

$$




USA.gov is the U.S. government's official web portal to all federal, state and local government web resources and services.